Flag for Switzerland Weather past 2 weeks in Martigny, Valais, Switzerland

Now
45 °F

Quite cool.


Feels Like: 45 °F
Forecast: 48 / 69 °F
Wind: 1 mph from Southwest

Location: Sion

Current Time: Apr 19, 2015 at 5:37:14 AM

Latest Report: Apr 19, 2015 at 4:00 AM


Visibility: N/A

Pressure: 30.04 "Hg

Humidity: 84%

Dew point: 40 °F

Location of MartignyLocation

Historic Weather in Martigny — Graph

°F

Martigny temperature yesterday

Maximum temperature yesterday: 65 °F (at 4:00 PM)
Minimum temperature yesterday: 50 °F (at 11:00 PM)
Average temperature yesterday: 56 °F

Past Weeks' High & Low Weather Summary

 TemperatureHumidityPressure
High77 °F (Apr 15, 4:00 PM)92% (Apr 18, 8:00 AM)30.55 "Hg (Apr 18, 8:00 AM)
Low30 °F (Apr 6, 7:00 AM)12% (Apr 15, 3:00 PM)29.80 "Hg (Apr 4, 5:00 PM)
Average52 °F55%30.20 "Hg
* Reported Apr 4 4:00 AM — Apr 19 4:00 AM, Martigny, Weather by CustomWeather, © 2015

Note: Actual official high and low records may vary slightly from our data, if they occured in-between our weather recording intervals... More about our weather records

Advertising

Martigny weather history for previous 24 hours

 ConditionsComfort  
Time TempWeatherWind HumidityBarometerVisibility
4:00 AM
Sun, Apr 19
45 °FQuite cool.1 mph84%30.04 "HgN/A
3:00 AM44 °FQuite cool.1 mph86%30.04 "HgN/A
2:00 AM45 °FCool.1 mph83%30.04 "HgN/A
1:00 AM47 °FCool.1 mph79%30.04 "HgN/A
12:00 AM48 °FCool.1 mph80%30.03 "HgN/A
11:00 PM
Sat, Apr 18
50 °FCool.2 mph74%30.01 "HgN/A
10:00 PM52 °FCool.5 mph68%30.00 "HgN/A
9:00 PM54 °FCool.15 mph63%29.96 "HgN/A
8:00 PM56 °FCool.17 mph60%29.93 "HgN/A
7:00 PM59 °FRefreshingly cool.16 mph57%29.91 "HgN/A
6:00 PM61 °FRefreshingly cool.22 mph52%29.90 "HgN/A
5:00 PM62 °FRefreshingly cool.24 mph51%29.88 "HgN/A
4:00 PM65 °FMild.21 mph48%29.88 "HgN/A
3:00 PM63 °FMild.20 mph49%29.92 "HgN/A
2:00 PM62 °FRefreshingly cool.21 mph55%29.94 "HgN/A
1:00 PM60 °FRefreshingly cool.22 mph60%29.96 "HgN/A
12:00 PM59 °FCool.15 mph62%29.98 "HgN/A
11:00 AM57 °FCool.13 mph72%29.99 "HgN/A
10:00 AM55 °FCool.5 mph79%29.99 "HgN/A
9:00 AM53 °FCool.3 mph83%30.01 "HgN/A
8:00 AM52 °FLight rain. Low clouds.2 mph92%30.01 "Hg12 mi
7:00 AM51 °FCool.1 mph88%30.01 "HgN/A
6:00 AM52 °FCool.2 mph86%30.00 "HgN/A
5:00 AM52 °FCool.2 mph87%30.00 "HgN/A
Weather by CustomWeather, © 2015

See weather overviewHow to use our weather pages